Flag for Canada Weather past 2 weeks in Kawartha Lakes, Ontario, Canada

Now
61 °F

Cool.


Feels Like: 61 °F
Forecast: 58 / 70 °F
Wind: 5 mph from East

Location: Lagoon City

Current Time: Jun 30, 2015 at 8:17:23 PM

Latest Report: Jun 30, 2015 at 7:00 PM


Visibility: N/A

Pressure: 29.76 "Hg

Humidity: 94%

Dew point: 59 °F

Location of Kawartha LakesLocation

Historic Weather in Kawartha Lakes — Graph

°F

Kawartha Lakes temperature yesterday

Maximum temperature yesterday: 71 °F (at 8:00 PM)
Minimum temperature yesterday: 57 °F (at 1:00 AM)
Average temperature yesterday: 63 °F

Past Weeks' High & Low Weather Summary

 TemperatureHumidityPressure
High75 °F (Jun 22, 5:00 PM)100% (Jun 28, 10:00 AM)30.20 "Hg (Jun 28, 10:00 AM)
Low53 °F (Jun 17, 4:00 AM)35% (Jun 19, 1:00 PM)29.57 "Hg (Jun 23, 6:00 AM)
Average63 °F75%29.93 "Hg
* Reported Jun 15 7:00 PM — Jun 30 7:00 PM, Kawartha Lakes, Weather by CustomWeather, © 2015

Note: Actual official high and low records may vary slightly from our data, if they occured in-between our weather recording intervals... More about our weather records

Advertising

Kawartha Lakes weather history for previous 24 hours

 ConditionsComfort  
Time TempWeatherWind HumidityBarometerVisibility
7:00 PM
Tue, Jun 30
61 °FCool.5 mph94%29.76 "HgN/A
6:00 PM61 °FCool.7 mph92%29.78 "HgN/A
5:00 PM61 °FCool.9 mph90%29.79 "HgN/A
4:00 PM63 °FMild.8 mph85%29.79 "HgN/A
3:00 PM66 °FMild.12 mph66%29.80 "HgN/A
2:00 PM66 °FMild.8 mph70%29.81 "HgN/A
1:00 PM67 °FMild.10 mph66%29.82 "HgN/A
12:00 PM66 °FMild.9 mph73%29.83 "HgN/A
11:00 AM67 °FMild.13 mph70%29.84 "HgN/A
10:00 AM67 °FMild.7 mph70%29.85 "HgN/A
9:00 AM65 °FMild.5 mph72%29.85 "HgN/A
8:00 AM63 °FMild.3 mph76%29.86 "HgN/A
7:00 AM60 °FCool.2 mph85%29.85 "HgN/A
6:00 AM57 °FCool.2 mph91%29.85 "HgN/A
5:00 AM57 °FCool.3 mph85%29.85 "HgN/A
4:00 AM61 °FCool.3 mph86%29.85 "HgN/A
3:00 AM62 °FCool.5 mph83%29.85 "HgN/A
2:00 AM62 °FCool.3 mph82%29.86 "HgN/A
1:00 AM63 °FMild.3 mph80%29.87 "HgN/A
12:00 AM66 °FMild.5 mph80%29.87 "HgN/A
11:00 PM
Mon, Jun 29
66 °FMild.6 mph80%29.87 "HgN/A
10:00 PM68 °FMild.13 mph79%29.88 "HgN/A
9:00 PM69 °FMild.8 mph80%29.85 "HgN/A
8:00 PM71 °FMild.6 mph68%29.84 "HgN/A
Weather by CustomWeather, © 2015

See weather overviewHow to use our weather pages